ミュラー第5彗星

173P/Mueller 5 (2021)

English version
Home page
Updated on December 9, 2019

---------------------------------------------------------------------

・ プロフィール

・ 写真集

・ 軌道要素

Epoch 2021 Dec. 12.0 TT = JDT 2459560.5
T 2021 Dec. 16.70959 TT                                 Williams
q   4.2170806            (2000.0)            P               Q
n   0.07230305     Peri.   29.17937     -0.61742056     -0.73540630
a   5.7064362      Node   100.40031     +0.65540498     -0.67722053
e   0.2609957      Incl.   16.49277     +0.43501284     -0.02345049
P  13.6
From 511 observations 1992 Sept. 25-2019 Oct. 31, mean residual 0".6.

・ 光度変化

        m1 = -14 + 5 logΔ + 45 log r(t + 600)

---------------------------------------------------------------------

軌道要素はM.P.E.C. 2019-V116に掲載されたものです。
光度グラフはComet for Windowsで作成したものです。

---------------------------------------------------------------------

Copyright(C) Seiichi Yoshida (comet@aerith.net). All rights reserved.